Laayoune/Hassan Isl, Western Sahara

9:26 PM WEST on October 21, 2017 (GMT +0100)
Laayoune/Hassan Isl

Weather History for GMML - February, 2014

Change the Weather History Date:

Monday, February 24, 2014

  Actual Average Record
Temperature  
Mean Temperature 60 °F -  
Max Temperature 68 °F - - ()
Min Temperature 51 °F - - ()
Degree Days  
Heating Degree Days 6    
Growing Degree Days 10 (Base 50)    
Moisture  
Dew Point 50 °F    
Average Humidity 71    
Maximum Humidity 88    
Minimum Humidity 52    
Precipitation  
Precipitation 0.00 in - - ()
Sea Level Pressure  
Sea Level Pressure 30.16 in    
Wind  
Wind Speed 10 mph ()    
Max Wind Speed 24 mph    
Max Gust Speed -    
Visibility 6.2 miles    
Events      
T = Trace of Precipitation, MM = Missing Value Source: Averaged Metar Reports

Daily Weather History Graph

Daily Weather History Graph

Search for Another Location

Airport or City:

Trip Planner

Search our weather history database for the weather conditions in past years. The results will help you decide how hot, cold, wet, or windy it might be!

Date:

Astronomy

Feb. 24, 2014 Rise Set
Actual Time 7:21 AM WET 6:50 PM WET
Civil Twilight 6:58 AM WET 7:14 PM WET
Nautical Twilight 6:31 AM WET 7:41 PM WET
Astronomical Twilight 6:04 AM WET 8:08 PM WET
Moon 2:51 AM WET (2/24) 1:54 PM WET (2/24)
Length of Visible Light 12h 15m
Length of Day
11h 28m
Waning Crescent, 30% of the Moon is Illuminated
Feb 24
Waning Crescent
Mar 1
New
Mar 8
First Quarter
Mar 16
Full
Mar 24
Last Quarter

Hourly Weather History & Observations

Time (WET) Temp. Dew Point Humidity Pressure Visibility Wind Dir Wind Speed Gust Speed Precip Events Conditions
12:00 AM 55.4 °F 48.2 °F 77% 30.15 in 6.2 mi NNE 9.2 mph - N/A   Unknown
1:00 AM 55.4 °F 48.2 °F 77% 30.15 in 6.2 mi NE 6.9 mph - N/A   Unknown
3:00 AM 53.6 °F 48.2 °F 82% 30.12 in 6.2 mi NE 8.1 mph - N/A   Unknown
4:00 AM 53.6 °F 48.2 °F 82% 30.12 in 6.2 mi ENE 6.9 mph - N/A   Unknown
5:00 AM 51.8 °F 48.2 °F 88% 30.12 in 6.2 mi NE 8.1 mph - N/A   Unknown
6:00 AM 51.8 °F 48.2 °F 88% 30.12 in 6.2 mi ENE 6.9 mph - N/A   Unknown
7:00 AM 51.8 °F 48.2 °F 88% 30.15 in 6.2 mi ENE 4.6 mph - N/A   Unknown
8:00 AM 53.6 °F 50.0 °F 88% 30.15 in 6.2 mi NE 4.6 mph - N/A   Mostly Cloudy
9:00 AM 59.0 °F 50.0 °F 72% 30.18 in 6.2 mi ENE 9.2 mph - N/A   Overcast
10:00 AM 62.6 °F 50.0 °F 63% 30.21 in 6.2 mi NE 11.5 mph - N/A   Overcast
11:00 AM 64.4 °F 51.8 °F 64% 30.21 in 6.2 mi NE 13.8 mph - N/A   Overcast
1:00 PM 66.2 °F 53.6 °F 64% 30.15 in 6.2 mi North 13.8 mph - N/A   Overcast
2:00 PM 68.0 °F 51.8 °F 56% 30.12 in 6.2 mi NNE 12.7 mph - N/A   Overcast
3:00 PM 68.0 °F 50.0 °F 52% 30.12 in 6.2 mi NE 12.7 mph - N/A   Mostly Cloudy
4:00 PM 68.0 °F 50.0 °F 52% 30.12 in 6.2 mi NNE 18.4 mph - N/A   Mostly Cloudy
5:00 PM 66.2 °F 50.0 °F 56% 30.12 in 6.2 mi North 23.0 mph - N/A   Scattered Clouds
6:00 PM 64.4 °F 50.0 °F 59% 30.15 in 6.2 mi NNE 24.2 mph - N/A   Scattered Clouds
7:00 PM 62.6 °F 48.2 °F 59% 30.18 in 6.2 mi NE 20.7 mph - N/A   Scattered Clouds
8:00 PM 60.8 °F 50.0 °F 68% 30.18 in 6.2 mi NNE 17.3 mph - N/A   Scattered Clouds
9:00 PM 59.0 °F 51.8 °F 77% 30.21 in 6.2 mi NE 11.5 mph - N/A   Scattered Clouds
10:00 PM 59.0 °F 50.0 °F 72% 30.21 in 6.2 mi NE 11.5 mph - N/A   Scattered Clouds
11:00 PM 57.2 °F 50.0 °F 77% 30.21 in 6.2 mi NNE 15.0 mph - N/A   Scattered Clouds